NUSAT-20 (GRACE)

Last updated on Sun Nov 12 2023 00:02:27 GMT+0000 (Coordinated Universal Time)

1 48921U 21059AU 23315.12909187 .10955392 25426-5 41667-3 0 9997 2 48921 97.3814 104.8351 0010433 276.4819 83.5294 16.43156695133800

Satellite not in orbit